#Datum;Uhrzeit;WR;Pac;DaySum;Status;WR;Pac;DaySum;Status;Pdc1;Udc;Temp;WR;Pac;DaySum;Status;Pdc1;Udc;Temp;WR;Pac;DaySum;Status;Pdc1;Udc;Temp;WR;Pac;DaySum;Status;Pdc1;Pdc2;Udc1;Udc2;Temp;WR;Pac;DaySum;Status;Pdc1;Pdc2;Udc1;Udc2;Temp;WR;Pac;DaySum;Status;Pdc1;Udc;Temp;WR;Pac;DaySum;Status;Pdc1;Udc;Temp;WR;Pac;DaySum;Status;Pdc1;Udc;Temp
17.02.19;23:55:00;1;672;10353;0;2;0;23842;0;0;0;0;3;0;15450;0;0;0;0;4;0;21512;0;0;0;0;5;0;57875;0;0;0;0;0;0;6;0;44177;0;0;0;0;0;0;7;0;38602;0;0;0;0;8;0;37465;0;0;0;0;9;0;20216;0;0;0;0
17.02.19;23:50:00;1;233;10304;0;2;0;23842;0;0;0;0;3;0;15450;0;0;0;0;4;0;21512;0;0;0;0;5;0;57875;0;0;0;0;0;0;6;0;44177;0;0;0;0;0;0;7;0;38602;0;0;0;0;8;0;37465;0;0;0;0;9;0;20216;0;0;0;0
17.02.19;23:45:00;1;223;10284;0;2;0;23842;0;0;0;0;3;0;15450;0;0;0;0;4;0;21512;0;0;0;0;5;0;57875;0;0;0;0;0;0;6;0;44177;0;0;0;0;0;0;7;0;38602;0;0;0;0;8;0;37465;0;0;0;0;9;0;20216;0;0;0;0
17.02.19;23:40:00;1;222;10266;0;2;0;23842;0;0;0;0;3;0;15450;0;0;0;0;4;0;21512;0;0;0;0;5;0;57875;0;0;0;0;0;0;6;0;44177;0;0;0;0;0;0;7;0;38602;0;0;0;0;8;0;37465;0;0;0;0;9;0;20216;0;0;0;0
17.02.19;23:35:00;1;224;10247;0;2;0;23842;0;0;0;0;3;0;15450;0;0;0;0;4;0;21512;0;0;0;0;5;0;57875;0;0;0;0;0;0;6;0;44177;0;0;0;0;0;0;7;0;38602;0;0;0;0;8;0;37465;0;0;0;0;9;0;20216;0;0;0;0
17.02.19;23:30:00;1;224;10228;0;2;0;23842;0;0;0;0;3;0;15450;0;0;0;0;4;0;21512;0;0;0;0;5;0;57875;0;0;0;0;0;0;6;0;44177;0;0;0;0;0;0;7;0;38602;0;0;0;0;8;0;37465;0;0;0;0;9;0;20216;0;0;0;0
17.02.19;23:25:00;1;649;10209;0;2;0;23842;0;0;0;0;3;0;15450;0;0;0;0;4;0;21512;0;0;0;0;5;0;57875;0;0;0;0;0;0;6;0;44177;0;0;0;0;0;0;7;0;38602;0;0;0;0;8;0;37465;0;0;0;0;9;0;20216;0;0;0;0
17.02.19;23:20:00;1;228;10164;0;2;0;23842;0;0;0;0;3;0;15450;0;0;0;0;4;0;21512;0;0;0;0;5;0;57875;0;0;0;0;0;0;6;0;44177;0;0;0;0;0;0;7;0;38602;0;0;0;0;8;0;37465;0;0;0;0;9;0;20216;0;0;0;0
17.02.19;23:15:00;1;228;10145;0;2;0;23842;0;0;0;0;3;0;15450;0;0;0;0;4;0;21512;0;0;0;0;5;0;57875;0;0;0;0;0;0;6;0;44177;0;0;0;0;0;0;7;0;38602;0;0;0;0;8;0;37465;0;0;0;0;9;0;20216;0;0;0;0
17.02.19;23:10:00;1;228;10126;0;2;0;23842;0;0;0;0;3;0;15450;0;0;0;0;4;0;21512;0;0;0;0;5;0;57875;0;0;0;0;0;0;6;0;44177;0;0;0;0;0;0;7;0;38602;0;0;0;0;8;0;37465;0;0;0;0;9;0;20216;0;0;0;0
17.02.19;23:07:00;1;229;10118;0;2;0;23842;0;0;0;0;3;0;15450;0;0;0;0;4;0;21512;0;0;0;0;5;0;57875;0;0;0;0;0;0;6;0;44177;0;0;0;0;0;0;7;0;38602;0;0;0;0;8;0;37465;0;0;0;0;9;0;20216;0;0;0;0
17.02.19;23:00:00;1;263;10084;0;2;0;23842;0;0;0;0;3;0;15450;0;0;0;0;4;0;21512;0;0;0;0;5;0;57875;0;0;0;0;0;0;6;0;44177;0;0;0;0;0;0;7;0;38602;0;0;0;0;8;0;37465;0;0;0;0;9;0;20216;0;0;0;0
17.02.19;22:55:00;1;257;10062;0;2;0;23842;0;0;0;0;3;0;15450;0;0;0;0;4;0;21512;0;0;0;0;5;0;57875;2;0;0;0;0;0;6;0;44177;2;0;0;0;0;0;7;0;38602;0;0;0;0;8;0;37465;0;0;0;0;9;0;20216;0;0;0;0
17.02.19;22:50:00;1;444;10042;0;2;0;23842;0;0;0;0;3;0;15450;0;0;0;0;4;0;21512;0;0;0;0;5;0;57875;2;0;0;0;0;0;6;0;44177;2;0;0;0;0;0;7;0;38602;0;0;0;0;8;0;37465;0;0;0;0;9;0;20216;0;0;0;0
17.02.19;22:45:00;1;222;9997;0;2;0;23842;0;0;0;0;3;0;15450;0;0;0;0;4;0;21512;0;0;0;0;5;0;57875;2;0;0;0;0;0;6;0;44177;2;0;0;0;0;0;7;0;38602;0;0;0;0;8;0;37465;0;0;0;0;9;0;20216;0;0;0;0
17.02.19;22:40:00;1;227;9978;0;2;0;23842;0;0;0;0;3;0;15450;0;0;0;0;4;0;21512;0;0;0;0;5;0;57875;2;0;0;0;0;0;6;0;44177;2;0;0;0;0;0;7;0;38602;0;0;0;0;8;0;37465;0;0;0;0;9;0;20216;0;0;0;0
17.02.19;22:35:00;1;255;9959;0;2;0;23842;0;0;0;0;3;0;15450;0;0;0;0;4;0;21512;0;0;0;0;5;0;57875;2;0;0;0;0;0;6;0;44177;2;0;0;0;0;0;7;0;38602;0;0;0;0;8;0;37465;0;0;0;0;9;0;20216;0;0;0;0
17.02.19;22:30:00;1;262;9937;0;2;0;23842;0;0;0;0;3;0;15450;0;0;0;0;4;0;21512;0;0;0;0;5;0;57875;2;0;0;0;0;0;6;0;44177;2;0;0;0;0;0;7;0;38602;0;0;0;0;8;0;37465;0;0;0;0;9;0;20216;0;0;0;0
17.02.19;22:25:00;1;355;9915;0;2;0;23842;0;0;0;0;3;0;15450;0;0;0;0;4;0;21512;0;0;0;0;5;0;57875;2;0;0;0;0;0;6;0;44177;2;0;0;0;0;0;7;0;38602;0;0;0;0;8;0;37465;0;0;0;0;9;0;20216;0;0;0;0
17.02.19;22:20:00;1;349;9885;0;2;0;23842;0;0;0;0;3;0;15450;0;0;0;0;4;0;21512;0;0;0;0;5;0;57875;2;0;0;0;0;0;6;0;44177;2;0;0;0;0;0;7;0;38602;0;0;0;0;8;0;37465;0;0;0;0;9;0;20216;0;0;0;0
17.02.19;22:15:00;1;344;9855;0;2;0;23842;0;0;0;0;3;0;15450;0;0;0;0;4;0;21512;0;0;0;0;5;0;57875;2;0;0;0;0;0;6;0;44177;2;0;0;0;0;0;7;0;38602;0;0;0;0;8;0;37465;0;0;0;0;9;0;20216;0;0;0;0
17.02.19;22:10:00;1;1011;9825;0;2;0;23842;0;0;0;0;3;0;15450;0;0;0;0;4;0;21512;0;0;0;0;5;0;57875;2;0;0;0;0;0;6;0;44177;2;0;0;0;0;0;7;0;38602;0;0;0;0;8;0;37465;0;0;0;0;9;0;20216;0;0;0;0
17.02.19;22:05:00;1;439;9767;0;2;0;23842;0;0;0;0;3;0;15450;0;0;0;0;4;0;21512;0;0;0;0;5;0;57875;2;0;0;0;0;0;6;0;44177;2;0;0;0;0;0;7;0;38602;0;0;0;0;8;0;37465;0;0;0;0;9;0;20216;0;0;0;0
17.02.19;22:00:00;1;403;9730;0;2;0;23842;0;0;0;0;3;0;15450;0;0;0;0;4;0;21512;0;0;0;0;5;0;57875;2;0;0;0;0;0;6;0;44177;2;0;0;0;0;0;7;0;38602;0;0;0;0;8;0;37465;0;0;0;0;9;0;20216;0;0;0;0
17.02.19;21:55:00;1;369;9697;0;2;0;23842;0;0;0;0;3;0;15450;0;0;0;0;4;0;21512;0;0;0;0;5;0;57875;2;0;0;0;0;0;6;0;44177;2;0;0;0;0;0;7;0;38602;0;0;0;0;8;0;37465;0;0;0;0;9;0;20216;0;0;0;0
17.02.19;21:50:00;1;394;9667;0;2;0;23842;0;0;0;0;3;0;15450;0;0;0;0;4;0;21512;0;0;0;0;5;0;57875;2;0;0;0;0;0;6;0;44177;2;0;0;0;0;0;7;0;38602;0;0;0;0;8;0;37465;0;0;0;0;9;0;20216;0;0;0;0
17.02.19;21:45:00;1;321;9638;0;2;0;23842;0;0;0;0;3;0;15450;0;0;0;0;4;0;21512;0;0;0;0;5;0;57875;2;0;0;0;0;0;6;0;44177;2;0;0;0;0;0;7;0;38602;0;0;0;0;8;0;37465;0;0;0;0;9;0;20216;0;0;0;0
17.02.19;21:40:00;1;777;9610;0;2;0;23842;0;0;0;0;3;0;15450;0;0;0;0;4;0;21512;0;0;0;0;5;0;57875;2;0;0;0;0;0;6;0;44177;2;0;0;0;0;0;7;0;38602;0;0;0;0;8;0;37465;0;0;0;0;9;0;20216;0;0;0;0
17.02.19;21:35:00;1;444;9552;0;2;0;23842;0;0;0;0;3;0;15450;0;0;0;0;4;0;21512;0;0;0;0;5;0;57875;2;0;0;0;0;0;6;0;44177;2;0;0;0;0;0;7;0;38602;0;0;0;0;8;0;37465;0;0;0;0;9;0;20216;0;0;0;0
17.02.19;21:30:00;1;492;9514;0;2;0;23842;0;0;0;0;3;0;15450;0;0;0;0;4;0;21512;0;0;0;0;5;0;57875;2;0;0;0;0;0;6;0;44177;2;0;0;0;0;0;7;0;38602;0;0;0;0;8;0;37465;0;0;0;0;9;0;20216;0;0;0;0
17.02.19;21:25:00;1;492;9473;0;2;0;23842;0;0;0;0;3;0;15450;0;0;0;0;4;0;21512;0;0;0;0;5;0;57875;2;0;0;0;0;0;6;0;44177;2;0;0;0;0;0;7;0;38602;0;0;0;0;8;0;37465;0;0;0;0;9;0;20216;0;0;0;0
17.02.19;21:20:00;1;498;9432;0;2;0;23842;0;0;0;0;3;0;15450;0;0;0;0;4;0;21512;0;0;0;0;5;0;57875;2;0;0;0;0;0;6;0;44177;2;0;0;0;0;0;7;0;38602;0;0;0;0;8;0;37465;0;0;0;0;9;0;20216;0;0;0;0
17.02.19;21:15:00;1;533;9390;0;2;0;23842;0;0;0;0;3;0;15450;0;0;0;0;4;0;21512;0;0;0;0;5;0;57875;2;0;0;0;0;0;6;0;44177;2;0;0;0;0;0;7;0;38602;0;0;0;0;8;0;37465;0;0;0;0;9;0;20216;0;0;0;0
17.02.19;21:10:00;1;571;9346;0;2;0;23842;0;0;0;0;3;0;15450;0;0;0;0;4;0;21512;0;0;0;0;5;0;57875;2;0;0;0;0;0;6;0;44177;2;0;0;0;0;0;7;0;38602;0;0;0;0;8;0;37465;0;0;0;0;9;0;20216;0;0;0;0
17.02.19;21:05:00;1;781;9280;0;2;0;23842;0;0;0;0;3;0;15450;0;0;0;0;4;0;21512;0;0;0;0;5;0;57875;2;0;0;0;0;0;6;0;44177;2;0;0;0;0;0;7;0;38602;0;0;0;0;8;0;37465;0;0;0;0;9;0;20216;0;0;0;0
17.02.19;21:00:00;1;495;9231;0;2;0;23842;0;0;0;0;3;0;15450;0;0;0;0;4;0;21512;0;0;0;0;5;0;57875;2;0;0;0;0;0;6;0;44177;2;0;0;0;0;0;7;0;38602;0;0;0;0;8;0;37465;0;0;0;0;9;0;20216;0;0;0;0
17.02.19;20:55:00;1;492;9190;0;2;0;23842;0;0;0;0;3;0;15450;0;0;0;0;4;0;21512;0;0;0;0;5;0;57875;2;0;0;0;0;0;6;0;44177;2;0;0;0;0;0;7;0;38602;0;0;0;0;8;0;37465;0;0;0;0;9;0;20216;0;0;0;0
17.02.19;20:50:00;1;492;9148;0;2;0;23842;0;0;0;0;3;0;15450;0;0;0;0;4;0;21512;0;0;0;0;5;0;57875;2;0;0;0;0;0;6;0;44177;2;0;0;0;0;0;7;0;38602;0;0;0;0;8;0;37465;0;0;0;0;9;0;20216;0;0;0;0
17.02.19;20:45:00;1;490;9107;0;2;0;23842;0;0;0;0;3;0;15450;0;0;0;0;4;0;21512;0;0;0;0;5;0;57875;2;0;0;0;0;0;6;0;44177;2;0;0;0;0;0;7;0;38602;0;0;0;0;8;0;37465;0;0;0;0;9;0;20216;0;0;0;0
17.02.19;20:40:00;1;485;9067;0;2;0;23842;0;0;0;0;3;0;15450;0;0;0;0;4;0;21512;0;0;0;0;5;0;57875;2;0;0;0;0;0;6;0;44177;2;0;0;0;0;0;7;0;38602;0;0;0;0;8;0;37465;0;0;0;0;9;0;20216;0;0;0;0
17.02.19;20:35:00;1;665;9026;0;2;0;23842;0;0;0;0;3;0;15450;0;0;0;0;4;0;21512;0;0;0;0;5;0;57875;2;0;0;0;0;0;6;0;44177;2;0;0;0;0;0;7;0;38602;0;0;0;0;8;0;37465;0;0;0;0;9;0;20216;0;0;0;0
17.02.19;20:30:00;1;492;8959;0;2;0;23842;0;0;0;0;3;0;15450;0;0;0;0;4;0;21512;0;0;0;0;5;0;57875;2;0;0;0;0;0;6;0;44177;2;0;0;0;0;0;7;0;38602;0;0;0;0;8;0;37465;0;0;0;0;9;0;20216;0;0;0;0
17.02.19;20:25:00;1;505;8918;0;2;0;23842;0;0;0;0;3;0;15450;0;0;0;0;4;0;21512;0;0;0;0;5;0;57875;2;0;0;0;0;0;6;0;44177;2;0;0;0;0;0;7;0;38602;0;0;0;0;8;0;37465;0;0;0;0;9;0;20216;0;0;0;0
17.02.19;20:20:00;1;551;8875;0;2;0;23842;0;0;0;0;3;0;15450;0;0;0;0;4;0;21512;0;0;0;0;5;0;57875;2;0;0;0;0;0;6;0;44177;2;0;0;0;0;0;7;0;38602;0;0;0;0;8;0;37465;0;0;0;0;9;0;20216;0;0;0;0
17.02.19;20:15:00;1;605;8829;0;2;0;23842;0;0;0;0;3;0;15450;0;0;0;0;4;0;21512;0;0;0;0;5;0;57875;2;0;0;0;0;0;6;0;44177;2;0;0;0;0;0;7;0;38602;0;0;0;0;8;0;37465;0;0;0;0;9;0;20216;0;0;0;0
17.02.19;20:10:00;1;599;8777;0;2;0;23842;0;0;0;0;3;0;15450;0;0;0;0;4;0;21512;0;0;0;0;5;0;57875;2;0;0;0;0;0;6;0;44177;2;0;0;0;0;0;7;0;38602;0;0;0;0;8;0;37465;0;0;0;0;9;0;20216;0;0;0;0
17.02.19;20:05:00;1;586;8727;0;2;0;23842;0;0;0;0;3;0;15450;0;0;0;0;4;0;21512;0;0;0;0;5;0;57875;2;0;0;0;0;0;6;0;44177;2;0;0;0;0;0;7;0;38602;0;0;0;0;8;0;37465;0;0;0;0;9;0;20216;0;0;0;0
17.02.19;20:00:00;1;819;8672;0;2;0;23842;0;0;0;0;3;0;15450;0;0;0;0;4;0;21512;0;0;0;0;5;0;57875;2;0;0;0;0;0;6;0;44177;2;0;0;0;0;0;7;0;38602;0;0;0;0;8;0;37465;0;0;0;0;9;0;20216;0;0;0;0
17.02.19;19:55:00;1;618;8600;0;2;0;23842;0;0;0;0;3;0;15450;0;0;0;0;4;0;21512;0;0;0;0;5;0;57875;2;0;0;0;0;0;6;0;44177;2;0;0;0;0;0;7;0;38602;0;0;0;0;8;0;37465;0;0;0;0;9;0;20216;0;0;0;0
17.02.19;19:50:00;1;597;8549;0;2;0;23842;0;0;0;0;3;0;15450;0;0;0;0;4;0;21512;0;0;0;0;5;0;57875;2;0;0;0;0;0;6;0;44177;2;0;0;0;0;0;7;0;38602;0;0;0;0;8;0;37465;0;0;0;0;9;0;20216;0;0;0;0
17.02.19;19:45:00;1;591;8499;0;2;0;23842;0;0;0;0;3;0;15450;0;0;0;0;4;0;21512;0;0;0;0;5;0;57875;2;0;0;0;0;0;6;0;44177;2;0;0;0;0;0;7;0;38602;0;0;0;0;8;0;37465;0;0;0;0;9;0;20216;0;0;0;0
17.02.19;19:40:00;1;585;8450;0;2;0;23842;0;0;0;0;3;0;15450;0;0;0;0;4;0;21512;0;0;0;0;5;0;57875;2;0;0;0;0;0;6;0;44177;2;0;0;0;0;0;7;0;38602;0;0;0;0;8;0;37465;0;0;0;0;9;0;20216;0;0;0;0
17.02.19;19:35:00;1;566;8401;0;2;0;23842;0;0;0;0;3;0;15450;0;0;0;0;4;0;21512;0;0;0;0;5;0;57875;2;0;0;0;0;0;6;0;44177;2;0;0;0;0;0;7;0;38602;0;0;0;0;8;0;37465;0;0;0;0;9;0;20216;0;0;0;0
17.02.19;19:30:00;1;535;8354;0;2;0;23842;0;0;0;0;3;0;15450;0;0;0;0;4;0;21512;0;0;0;0;5;0;57875;2;0;0;0;0;0;6;0;44177;2;0;0;0;0;0;7;0;38602;0;0;0;0;8;0;37465;0;0;0;0;9;0;20216;0;0;0;0
17.02.19;19:25:00;1;566;8308;0;2;0;23842;0;0;0;0;3;0;15450;0;0;0;0;4;0;21512;0;0;0;0;5;0;57875;2;0;0;0;0;0;6;0;44177;2;0;0;0;0;0;7;0;38602;0;0;0;0;8;0;37465;0;0;0;0;9;0;20216;0;0;0;0
17.02.19;19:20:00;1;578;8261;0;2;0;23842;0;0;0;0;3;0;15450;0;0;0;0;4;0;21512;0;0;0;0;5;0;57875;2;0;0;0;0;0;6;0;44177;2;0;0;0;0;0;7;0;38602;0;0;0;0;8;0;37465;0;0;0;0;9;0;20216;0;0;0;0
17.02.19;19:15:00;1;918;8212;0;2;0;23842;0;0;0;0;3;0;15450;0;0;0;0;4;0;21512;0;0;0;0;5;0;57875;2;0;0;0;0;0;6;0;44177;2;0;0;0;0;0;7;0;38602;0;0;0;0;8;0;37465;0;0;0;0;9;0;20216;0;0;0;0
17.02.19;19:10:00;1;542;8139;0;2;0;23842;0;0;0;0;3;0;15450;0;0;0;0;4;0;21512;0;0;0;0;5;0;57875;2;0;0;0;0;0;6;0;44177;2;0;0;0;0;0;7;0;38602;0;0;0;0;8;0;37465;0;0;0;0;9;0;20216;0;0;0;0
17.02.19;19:05:00;1;544;8094;0;2;0;23842;0;0;0;0;3;0;15450;0;0;0;0;4;0;21512;0;0;0;0;5;0;57875;2;0;0;0;0;0;6;0;44177;2;0;0;0;0;0;7;0;38602;0;0;0;0;8;0;37465;0;0;0;0;9;0;20216;0;0;0;0
17.02.19;19:00:00;1;544;8048;0;2;0;23842;0;0;0;0;3;0;15450;0;0;0;0;4;0;21512;0;0;0;0;5;0;57875;2;0;0;0;0;0;6;0;44177;2;0;0;0;0;0;7;0;38602;0;0;0;0;8;0;37465;0;0;0;0;9;0;20216;0;0;0;0
17.02.19;18:55:00;1;522;8003;0;2;0;23842;0;0;0;0;3;0;15450;0;0;0;0;4;0;21512;0;0;0;0;5;0;57875;2;0;0;0;0;0;6;0;44177;2;0;0;0;0;0;7;0;38602;0;0;0;0;8;0;37465;0;0;0;0;9;0;20216;0;0;0;0
17.02.19;18:50:00;1;531;7959;0;2;0;23842;0;0;0;0;3;0;15450;0;0;0;0;4;0;21512;0;0;0;0;5;0;57875;2;0;0;0;0;0;6;0;44177;2;0;0;0;0;0;7;0;38602;0;0;0;0;8;0;37465;0;0;0;0;9;0;20216;0;0;0;0
17.02.19;18:45:00;1;523;7915;0;2;0;23842;0;0;0;0;3;0;15450;0;0;0;0;4;0;21512;0;0;0;0;5;0;57875;2;0;0;0;0;0;6;0;44177;2;0;0;0;0;0;7;0;38602;0;0;0;0;8;0;37465;0;0;0;0;9;0;20216;0;0;0;0
17.02.19;18:40:00;1;524;7871;0;2;0;23842;0;0;0;0;3;0;15450;0;0;0;0;4;0;21512;0;0;0;0;5;0;57875;2;0;0;0;0;0;6;0;44177;2;0;0;0;0;0;7;0;38602;0;0;0;0;8;0;37465;0;0;0;0;9;0;20216;0;0;0;0
17.02.19;18:35:00;1;547;7827;0;2;0;23842;0;0;0;0;3;0;15450;0;0;0;0;4;0;21512;0;0;0;0;5;0;57875;2;0;0;0;0;0;6;0;44177;2;0;0;0;0;0;7;0;38602;0;0;0;0;8;0;37465;0;0;0;0;9;0;20216;0;0;0;0
17.02.19;18:30:00;1;781;7781;0;2;0;23842;0;0;0;0;3;0;15450;0;0;0;0;4;0;21512;0;0;0;0;5;0;57875;2;0;0;0;0;0;6;0;44177;2;0;0;0;0;0;7;0;38602;0;0;0;0;8;0;37465;0;0;0;0;9;0;20216;0;0;0;0
17.02.19;18:25:00;1;1050;7703;0;2;0;23842;0;0;0;0;3;0;15450;0;0;0;0;4;0;21512;0;0;0;0;5;0;57875;2;0;0;0;0;0;6;0;44177;2;0;0;0;0;0;7;0;38602;0;0;0;0;8;0;37465;0;0;0;0;9;0;20216;0;0;0;0
17.02.19;18:20:00;1;809;7618;0;2;0;23842;0;0;0;0;3;0;15450;0;0;0;0;4;0;21512;0;0;0;0;5;0;57875;2;0;0;0;0;0;6;0;44177;2;0;0;0;0;0;7;0;38602;0;0;0;0;8;0;37465;0;0;0;0;9;0;20216;0;0;0;0
17.02.19;18:15:00;1;795;7551;0;2;0;23842;0;0;0;0;3;0;15450;0;0;0;0;4;0;21512;0;0;0;0;5;0;57875;2;0;0;0;0;0;6;0;44177;2;0;0;0;0;0;7;0;38602;0;0;0;0;8;0;37465;0;0;0;0;9;0;20216;0;0;0;0
17.02.19;18:10:00;1;679;7484;0;2;0;23842;0;0;0;0;3;0;15450;0;0;0;0;4;0;21512;0;0;0;0;5;0;57875;2;0;0;0;0;0;6;0;44177;2;0;0;0;0;0;7;0;38602;0;0;0;0;8;0;37465;0;0;0;0;9;0;20216;0;0;0;0
17.02.19;18:05:00;1;562;7429;0;2;0;23842;0;0;0;0;3;0;15450;0;0;0;0;4;0;21512;0;0;0;0;5;0;57875;2;0;0;0;0;0;6;0;44177;2;0;0;0;0;0;7;0;38602;0;0;0;0;8;0;37465;0;0;0;0;9;0;20216;0;0;0;0
17.02.19;18:00:00;1;586;7382;0;2;0;23842;0;0;130;9;3;0;15450;0;0;237;16;4;0;21512;0;0;0;0;5;0;57875;2;0;0;0;0;0;6;0;44177;2;0;0;0;0;0;7;0;38602;0;0;0;0;8;0;37465;0;0;0;0;9;0;20216;0;0;0;0
17.02.19;17:55:00;1;568;7333;0;2;0;23842;6;0;305;19;3;0;15450;6;0;356;21;4;0;21512;0;0;49;12;5;0;57875;2;0;0;0;0;0;6;0;44177;2;0;0;0;0;0;7;0;38602;0;0;0;0;8;0;37465;0;0;0;0;9;0;20216;0;0;0;0
17.02.19;17:50:00;1;847;7286;0;2;0;23842;6;0;345;19;3;0;15450;6;2;412;21;4;0;21512;1;0;108;19;5;0;57875;2;0;0;221;220;22;6;0;44177;2;6;0;107;226;16;7;0;38602;0;0;105;8;8;0;37465;0;0;102;8;9;0;20216;0;0;106;6
17.02.19;17:45:00;1;554;7212;0;2;0;23842;6;0;372;20;3;0;15450;6;3;433;21;4;0;21512;1;0;159;19;5;0;57875;26;0;0;393;431;28;6;0;44177;23;2;9;425;286;26;7;0;38602;6;0;328;21;8;0;37465;6;0;324;20;9;0;20216;6;0;330;15
17.02.19;17:40:00;1;516;7167;0;2;0;23842;6;0;388;21;3;0;15450;6;0;492;22;4;0;21512;1;0;196;20;5;16;57875;1;0;0;397;619;28;6;0;44177;23;5;5;333;483;26;7;0;38602;6;0;393;22;8;0;37465;6;0;393;21;9;0;20216;6;0;410;15
17.02.19;17:35:00;1;546;7123;0;2;0;23842;6;0;399;21;3;3;15450;4;8;465;22;4;0;21512;3;0;212;20;5;22;57875;1;0;2;412;655;29;6;0;44177;23;4;6;454;575;27;7;0;38602;6;1;424;22;8;0;37465;6;1;428;21;9;0;20216;6;1;456;16
17.02.19;17:30:00;1;539;7078;0;2;0;23842;6;0;408;22;3;1;15450;6;7;495;22;4;0;21512;3;0;229;21;5;84;57872;4;2;9;388;618;30;6;56;44176;4;22;37;499;475;28;7;0;38602;6;4;445;23;8;0;37465;6;0;470;22;9;0;20216;4;2;485;16
17.02.19;17:25:00;1;506;7033;0;2;93;23842;6;121;364;23;3;35;15449;6;54;461;23;4;35;21512;3;36;200;22;5;111;57865;4;23;23;388;618;30;6;79;44171;4;42;61;499;475;29;7;4;38602;6;14;442;24;8;4;37465;3;11;448;22;9;2;20216;3;12;464;17
17.02.19;17:20:00;1;412;6990;0;2;329;23834;4;369;355;24;3;212;15447;4;248;405;24;4;269;21509;5;280;204;22;5;157;57856;4;45;47;388;618;30;6;122;44165;4;39;64;498;475;29;7;34;38602;6;56;381;24;8;7;37465;6;11;471;23;9;1;20215;6;6;523;17
17.02.19;17:15:00;1;240;6965;0;2;422;23808;4;467;354;25;3;275;15429;4;319;433;24;4;432;21488;5;450;207;23;5;232;57842;4;100;52;388;618;30;6;180;44154;4;68;96;499;475;29;7;197;38599;4;224;355;25;8;49;37464;4;87;419;24;9;2;20215;6;7;537;18
17.02.19;17:10:00;1;543;6945;0;2;523;23773;4;576;373;26;3;361;15407;4;408;439;25;4;553;21452;5;576;211;23;5;321;57822;4;159;101;384;618;31;6;254;44139;4;142;184;499;482;29;7;530;38583;4;570;358;26;8;84;37460;4;114;384;24;9;12;20215;6;20;509;18
17.02.19;17:05:00;1;256;6899;0;2;692;23729;4;746;361;27;3;483;15377;4;535;428;26;4;631;21406;5;657;208;23;5;446;57795;4;238;136;406;618;31;6;378;44117;4;212;260;522;563;29;7;813;38540;4;865;412;26;8;166;37453;4;200;379;25;9;6;20214;6;10;550;19
17.02.19;17:00:00;1;255;6877;0;2;845;23672;4;906;354;28;3;603;15337;4;656;427;26;4;713;21354;5;743;208;24;5;587;57757;4;316;197;421;511;31;6;512;44085;4;252;267;584;563;29;7;1144;38473;4;1205;430;27;8;285;37439;4;328;448;26;9;9;20214;4;13;544;19
17.02.19;16:55:00;1;275;6855;0;2;1049;23601;4;1115;353;29;3;702;15287;4;762;429;26;4;782;21294;5;814;201;24;5;800;57707;4;404;314;418;579;31;6;647;44042;4;294;323;590;569;29;7;1477;38379;4;1561;475;28;8;461;37416;4;512;489;26;9;15;20213;3;26;530;20
17.02.19;16:50:00;1;245;6832;0;2;1196;23515;4;1269;354;30;3;781;15229;4;841;427;27;4;797;21229;5;830;202;24;5;1027;57639;4;514;419;423;652;32;6;800;43986;4;390;403;596;568;30;7;1773;38257;4;1861;475;28;8;511;37378;4;566;473;27;9;64;20211;4;91;444;21
17.02.19;16:45:00;1;246;6811;0;2;1427;23416;4;1504;352;31;3;844;15164;4;905;421;27;4;829;21163;5;863;218;25;5;1228;57553;4;622;521;420;680;32;6;963;43919;4;472;487;597;567;30;7;1989;38109;4;2094;469;29;8;739;37335;4;785;391;28;9;75;20206;4;103;472;22
17.02.19;16:40:00;1;289;6790;0;2;1561;23298;4;1648;360;32;3;926;15094;4;988;419;27;4;887;21094;5;924;210;25;5;1441;57449;4;731;612;412;684;32;6;1096;43839;4;522;547;597;567;30;7;2162;37944;4;2274;470;29;8;1103;37275;4;1163;362;28;9;80;20200;4;112;487;22
17.02.19;16:35:00;1;620;6766;0;2;1812;23168;4;1911;380;32;3;1014;15017;4;1081;417;27;4;1009;21021;5;1050;205;25;5;1668;57326;4;864;709;423;682;33;6;1274;43746;4;632;641;596;567;30;7;2349;37765;4;2463;472;30;8;1700;37184;4;1785;403;29;9;83;20193;4;115;450;23
17.02.19;16:30:00;1;265;6717;0;2;1967;23018;4;2076;377;33;3;1085;14932;4;1150;408;28;4;1058;20937;5;1102;200;25;5;1895;57186;4;981;806;422;676;33;6;1440;43639;4;724;719;594;566;30;7;2521;37570;4;2645;468;30;8;2216;37044;4;2323;428;30;9;98;20186;4;122;357;24
17.02.19;16:25:00;1;221;6696;0;2;2076;22854;4;2191;386;34;3;1140;14842;4;1208;412;28;4;1064;20849;5;1108;199;26;5;2121;57028;4;1106;907;422;688;33;6;1617;43518;4;793;808;595;565;30;7;2698;37360;4;2827;468;30;8;2505;36860;4;2627;446;30;9;435;20178;4;474;356;25
17.02.19;16:20:00;1;246;6677;0;2;2190;22681;4;2309;386;35;3;1213;14748;4;1285;405;29;4;1078;20761;5;1122;201;26;5;2336;56851;4;1227;1002;421;685;34;6;1791;43383;4;887;880;595;570;31;7;2862;37135;4;3001;467;31;8;2736;36653;4;2867;460;31;9;839;20144;4;889;353;27
17.02.19;16:15:00;1;305;6657;0;2;2277;22498;4;2397;373;36;3;1272;14647;4;1346;413;29;4;1137;20671;5;1185;199;26;5;2591;56654;4;1365;1119;426;682;34;6;1974;43233;4;1030;1018;592;568;31;7;3033;36897;4;3183;466;31;8;2980;36426;4;3122;466;31;9;1118;20075;4;1177;360;28
17.02.19;16:10:00;1;344;6631;0;2;2317;22309;4;2437;366;36;3;1362;14541;4;1440;416;30;4;1148;20576;5;1196;200;26;5;2815;56438;4;1490;1222;425;679;34;6;2149;43068;4;1084;1077;588;566;31;7;3198;36645;4;3349;464;32;8;3137;36178;4;3288;464;32;9;1303;19982;4;1374;385;29
17.02.19;16:05:00;1;1048;6574;0;2;2506;22115;4;2643;379;38;3;1419;14428;4;1500;409;30;4;1082;20480;5;1127;200;27;5;3042;56202;4;1629;1325;423;683;34;6;2320;42888;4;1173;1164;591;566;31;7;3339;36378;4;3498;467;32;8;3277;35916;4;3438;464;32;9;1456;19874;4;1538;415;30
17.02.19;16:00:00;1;399;6489;0;2;2611;21907;4;2747;379;38;3;1472;14310;4;1553;411;31;4;1050;20390;5;1093;199;27;5;3275;55947;4;1762;1433;424;673;35;6;2493;42694;4;1303;1276;589;562;31;7;3473;36100;4;3647;467;32;8;3429;35645;4;3592;462;32;9;1644;19753;4;1738;457;31
17.02.19;15:55:00;1;665;6437;0;2;2710;21690;4;2853;373;39;3;1523;14187;4;1609;412;31;4;1050;20302;5;1094;205;27;5;3517;55674;4;1888;1543;422;678;35;6;2672;42485;4;1393;1349;587;562;31;7;3624;35812;4;3800;461;33;8;3560;35359;4;3739;465;33;9;1880;19617;4;1986;494;32
17.02.19;15:50:00;1;435;6394;0;2;2839;21464;4;2988;379;40;3;1571;14060;4;1656;413;32;4;1076;20215;5;1121;200;28;5;3727;55379;4;2008;1630;422;680;35;6;2831;42261;4;1433;1397;584;559;31;7;3760;35510;4;3940;458;33;8;3704;35062;4;3879;459;33;9;2009;19461;4;2127;513;32
17.02.19;15:45:00;1;450;6358;0;2;2939;21228;4;3094;372;40;3;1623;13929;4;1713;411;32;4;1110;20125;5;1156;199;28;5;3955;55068;4;2129;1728;417;670;36;6;3005;42025;4;1529;1492;583;556;32;7;3878;35198;4;4067;459;33;8;3819;34755;4;4002;462;33;9;2098;19293;4;2222;508;33
17.02.19;15:40:00;1;395;6320;0;2;3014;20983;4;3174;378;41;3;1662;13794;4;1750;408;32;4;1095;20033;5;1141;204;29;5;4163;54736;4;2242;1835;416;664;36;6;3164;41773;4;1615;1585;580;556;32;7;4000;34874;4;4199;457;34;8;3945;34437;4;4128;452;34;9;2164;19119;4;2292;506;33
17.02.19;15:35:00;1;343;6288;0;2;3131;20733;4;3297;382;42;3;1704;13656;4;1792;408;33;4;1183;19942;5;1232;199;30;5;4366;54389;4;2349;1926;421;668;36;6;3320;41508;4;1693;1658;578;559;32;7;4119;34542;4;4321;459;34;8;4059;34108;4;4252;454;34;9;2234;18938;4;2361;510;33
17.02.19;15:30:00;1;2134;6259;0;2;3214;20472;4;3382;380;42;3;1745;13514;4;1835;403;33;4;1326;19843;5;1382;205;30;5;4580;54023;4;2490;2014;419;675;36;6;3478;41231;4;1809;1765;582;560;32;7;4218;34198;4;4428;463;34;8;4163;33769;4;4366;459;34;9;2294;18752;4;2423;511;34
17.02.19;15:25:00;1;2498;6054;0;2;3281;20204;4;3459;385;42;3;1786;13369;4;1880;404;33;4;1426;19734;5;1486;208;31;5;4809;53640;4;2605;2119;415;663;37;6;3650;40939;4;1884;1846;579;557;32;7;4333;33848;4;4548;453;34;8;4277;33424;4;4485;456;34;9;2355;18561;4;2491;500;34
17.02.19;15:20:00;1;2482;5847;0;2;3383;19931;4;3562;381;43;3;1816;13220;4;1907;402;33;4;1528;19615;5;1592;213;32;5;5006;53239;4;2704;2208;418;668;37;6;3796;40634;4;1970;1928;576;554;32;7;4398;33486;4;4612;450;35;8;4339;33067;4;4552;449;35;9;2389;18365;4;2532;508;34
17.02.19;15:15:00;1;2728;5639;0;2;3440;19650;4;3624;385;43;3;1846;13069;4;1943;407;34;4;1699;19488;5;1770;228;32;5;5195;52822;4;2828;2295;413;662;37;6;3938;40317;4;2028;1982;574;554;32;7;4503;33120;4;4722;452;35;8;4453;32706;4;4667;450;35;9;2453;18166;4;2595;502;35
17.02.19;15:10:00;1;2452;5405;0;2;3519;19363;4;3709;379;43;3;1885;12915;4;1985;402;34;4;1875;19347;5;1953;216;33;5;5390;52388;4;2939;2384;415;658;37;6;4083;39988;4;2087;2034;573;552;32;7;4590;32749;4;4812;444;35;8;4530;32338;4;4751;457;35;9;2503;17963;4;2651;505;35
17.02.19;15:05:00;1;276;5216;0;2;3572;19070;4;3768;381;43;3;1934;12758;4;2037;409;34;4;2027;19191;5;2112;228;34;5;5588;51937;4;3052;2475;413;657;38;6;4236;39646;4;2175;2132;573;553;32;7;4695;32363;4;4925;450;35;8;4638;31956;4;4869;449;35;9;2561;17753;4;2711;496;35
17.02.19;15:00:00;1;275;5193;0;2;3607;18773;4;3800;385;43;3;2010;12597;4;2117;421;35;4;2170;19023;5;2260;231;34;5;5734;51471;4;3122;2538;415;660;38;6;4353;39293;4;2229;2188;572;552;33;7;4767;31973;4;4998;445;35;8;4721;31571;4;4947;444;36;9;2604;17540;4;2753;495;36
17.02.19;14:55:00;1;317;5170;0;2;3661;18473;4;3855;382;43;3;2157;12430;4;2272;451;35;4;2325;18843;5;2422;227;35;5;5912;50992;4;3234;2621;411;661;38;6;4485;38929;4;2319;2265;567;550;33;7;4836;31575;4;5068;442;36;8;4775;31178;4;5008;444;36;9;2641;17323;4;2788;492;36
17.02.19;14:50:00;1;319;5143;0;2;3686;18167;4;3878;377;43;3;2279;12251;4;2404;468;36;4;2463;18649;5;2566;224;35;5;6063;50499;4;3312;2691;409;656;38;6;4596;38555;4;2356;2306;569;554;33;7;4884;31174;4;5125;444;36;8;4838;30780;4;5081;444;36;9;2676;17103;4;2828;497;36
17.02.19;14:45:00;1;608;5117;0;2;3734;17860;4;3932;379;43;3;2390;12061;4;2520;487;36;4;2601;18444;5;2709;226;36;5;6220;49993;4;3399;2758;411;657;38;6;4718;38171;4;2427;2363;566;549;33;7;4966;30765;4;5211;440;36;8;4919;30380;4;5155;445;36;9;2718;16882;4;2871;491;36
17.02.19;14:40:00;1;276;5064;0;2;3780;17550;4;3981;381;43;3;2446;11862;4;2582;482;36;4;2739;18228;5;2853;226;37;5;6384;49474;4;3497;2832;410;658;39;6;4842;37777;4;2490;2433;568;551;33;7;5040;30351;4;5284;450;36;8;4975;29967;4;5229;446;36;9;2760;16655;4;2915;498;37
17.02.19;14:35:00;1;275;5041;0;2;3824;17234;4;4022;377;43;3;2469;11658;4;2602;483;36;4;2875;18000;5;2995;224;37;5;6530;48940;4;3594;2897;406;658;39;6;4953;37373;4;2560;2494;565;551;33;7;5098;29932;4;5341;439;36;8;5038;29552;4;5289;443;37;9;2794;16424;4;2950;494;37